Regional Weather Roundup
Issued by NWS

Home | Current Version | Previous Version | Graphics & Text | Print | Product List | Glossary On
Versions: 1 2 3 4 5 6 7 8 9 10 11 12 13 14 15 16 17 18 19 20 21 22 23 24 25 26 27 28 29 30 31 32 33 34 35 36 37 38 39 40 41 42 43 44 45 46 47 48 49 50
000
ASUS43 KLSX 031507
RWRMO

WEATHER SUMMARY FOR MISSOURI
NATIONAL WEATHER SERVICE SPRINGFIELD MO
900 AM CST TUE MAR 03 2015

NOTE: "FAIR" INDICATES FEW OR NO CLOUDS BELOW 12,000 FEET WITH NO
       SIGNIFICANT WEATHER AND/OR OBSTRUCTIONS TO VISIBILITY.
       CURRENT SKY AND/OR WEATHER CONDITIONS ARE NOT AVAILABLE FOR
       CHILLICOTHE AND FARMINGTON.

MOZ001>031-035>038-043-044-053-054-031600-
...NORTHERN AND WESTERN MISSOURI...

CITY           SKY/WX    TMP DP  RH WIND       PRES   REMARKS
KANSAS CTY INT DRIZZLE   39  38  96 SW15G25   29.71R
KANSAS C DTWN  CLOUDY    41  38  89 SW8G20    29.73R
LEE`S SUMMIT   CLOUDY    40  38  93 SW21G30   29.73R
ST JOSEPH      CLOUDY    38  37  97 SW8       29.73R FOG
CHILLICOTHE      N/A     36  34  92 S8        29.73S WCI  30
KIRKSVILLE     FOG       33  33 100 SW12      29.72S VSB 1   WCI  24

$$
MOZ066>068-077>081-088>096-101>105-031600-
...SOUTHWEST MISSOURI...

CITY           SKY/WX    TMP DP  RH WIND       PRES   REMARKS
SPRINGFIELD    FOG       39  38  96 S14       29.84S VSB 1/2
JOPLIN         CLOUDY    43  41  93 S17       29.85F

$$
MOZ032>034-039>042-045>050-055>058-069>072-031600-
...CENTRAL MISSOURI...

CITY           SKY/WX    TMP DP  RH WIND       PRES   REMARKS
COLUMBIA       CLOUDY    37  35  92 S15       29.76R FOG     WCI  28
JEFFERSON CITY CLOUDY    39  37  92 VRB3      29.80F
ROLLA          CLOUDY    39  37  92 S21       29.78F FOG     WCI  29
SEDALIA        CLOUDY    39  37  92 SW15      29.76F FOG
WHITEMAN AFB   DRIZZLE   38  37  97 SW18G30   29.72F FOG     WCI  28
WARRENSBURG    CLOUDY    37  36  93 SW15G24   29.75R FOG     WCI  28
OSAGE BEACH    CLOUDY    39  37  93 S8        29.79F

$$
MOZ051-052-059>065-031600-
...EAST CENTRAL MISSOURI...

CITY           SKY/WX    TMP DP  RH WIND       PRES   REMARKS
ST LOUIS INTL  CLOUDY    39  34  82 S9        29.81F HAZE
SPIRIT OF STL  CLOUDY    39  36  89 S8        29.80F
ST CHARLES     CLOUDY    35  33  92 SE9       29.81F FOG     WCI  28

$$
MOZ072>076-082>087-097>100-106>115-031600-
...SOUTH CENTRAL AND SOUTHEAST MISSOURI...

CITY           SKY/WX    TMP DP  RH WIND       PRES   REMARKS
CAPE GIRARDEAU FOG       36  36 100 S10       30.00S VSB 3/4 WCI  28
FARMINGTON     CLOUDY    36  34  93 S16       29.92F WCI  26
POPLAR BLUFF   CLOUDY    34  31  88 S6        30.00F FOG     WCI  29
WEST PLAINS    FOG       36  35  96 S6        29.94S VSB 1/4

$$


USA.gov is the U.S. government's official web portal to all federal, state and local government web resources and services.